Change the Weather History Date:

Saturday, December 8, 2012

  Actual Average (KPNE) Record (KPNE)
Temperature  
Mean Temperature 46 °F -  
Max Temperature 51 °F 45 °F 60 °F (2004)
Min Temperature 42 °F 31 °F 21 °F (2005)
Degree Days  
Heating Degree Days 18    
Moisture  
Dew Point 45 °F    
Average Humidity 94    
Maximum Humidity 100    
Minimum Humidity 87    
Precipitation  
Precipitation 0.15 in - - ()
Sea Level Pressure  
Sea Level Pressure 29.93 in    
Wind  
Wind Speed 1 mph (WSW)    
Max Wind Speed 7 mph    
Max Gust Speed -    
Visibility 3 miles    
Events      
Averages and records for this station are not official NWS values.
T = Trace of Precipitation, MM = Missing Value Source: NWS Daily Summary

Daily Weather History Graph

Daily Weather History Graph

Search for Another Location

Airport or City:

Trip Planner

Search our weather history database for the weather conditions in past years. The results will help you decide how hot, cold, wet, or windy it might be!

Date:

Astronomy

Dec. 08, 2012 Rise Set
Actual Time 7:11 AM EST 4:35 PM EST
Civil Twilight 6:40 AM EST 5:05 PM EST
Nautical Twilight 6:06 AM EST 5:39 PM EST
Astronomical Twilight 5:33 AM EST 6:12 PM EST
Moon 1:32 AM EST (12/8) 1:04 PM EST (12/8)
Length of Visible Light 10h 25m
Length of Day
9h 24m
Waning Crescent, 28% of the Moon is Illuminated
Dec 8
Waning Crescent
Dec 13
New
Dec 20
First Quarter
Dec 28
Full
Jan 4
Last Quarter

Hourly Weather History & Observations

Time (EST) Temp. Windchill Dew Point Humidity Pressure Visibility Wind Dir Wind Speed Gust Speed Precip Events Conditions
12:15 AM 42.8 °F 40.1 °F 41.0 °F 93% 29.99 in 1.8 mi ENE 4.6 mph - 0.02 in   Overcast
12:35 AM 42.8 °F 41.1 °F 41.0 °F 93% 29.98 in 2.0 mi NE 3.5 mph - 0.04 in   Overcast
12:55 AM 42.8 °F - 41.0 °F 93% 29.97 in 2.0 mi Calm Calm - 0.07 in   Overcast
1:15 AM 42.8 °F - 41.0 °F 93% 29.97 in 2.0 mi Calm Calm - 0.04 in   Overcast
1:35 AM 42.8 °F - 41.0 °F 93% 29.96 in 2.0 mi Calm Calm - 0.07 in   Overcast
1:55 AM 42.8 °F - 41.0 °F 93% 29.96 in 4.0 mi Calm Calm - 0.07 in   Overcast
2:15 AM 42.8 °F - 42.8 °F 100% 29.96 in 2.0 mi Calm Calm - N/A   Overcast
2:35 AM 42.8 °F - 42.8 °F 100% 29.95 in 2.0 mi Calm Calm - N/A   Overcast
2:55 AM 42.8 °F - 42.8 °F 100% 29.95 in 2.5 mi Calm Calm - 0.01 in   Overcast
3:15 AM 42.8 °F 41.1 °F 42.8 °F 100% 29.93 in 2.0 mi ENE 3.5 mph - N/A   Overcast
3:35 AM 42.8 °F - 42.8 °F 100% 29.93 in 2.5 mi Calm Calm - N/A   Overcast
3:55 AM 42.8 °F 41.1 °F 42.8 °F 100% 29.92 in 2.0 mi NE 3.5 mph - N/A   Overcast
4:15 AM 42.8 °F - 42.8 °F 100% 29.91 in 2.5 mi Calm Calm - N/A   Overcast
4:35 AM 42.8 °F - 42.8 °F 100% 29.91 in 2.5 mi Calm Calm - N/A   Overcast
4:55 AM 42.8 °F - 42.8 °F 100% 29.91 in 2.5 mi Calm Calm - N/A   Overcast
5:15 AM 42.8 °F 41.1 °F 42.8 °F 100% 29.91 in 2.0 mi West 3.5 mph - N/A   Overcast
5:35 AM 42.8 °F - 42.8 °F 100% 29.91 in 2.5 mi Calm Calm - N/A   Overcast
5:55 AM 42.8 °F - 42.8 °F 100% 29.91 in 3.0 mi Calm Calm - N/A   Overcast
6:15 AM 42.8 °F - 42.8 °F 100% 29.91 in 2.5 mi Calm Calm - N/A   Overcast
6:35 AM 42.8 °F - 42.8 °F 100% 29.91 in 1.8 mi Calm Calm - N/A   Overcast
6:55 AM 42.8 °F - 42.8 °F 100% 29.90 in 1.8 mi Calm Calm - N/A   Overcast
7:15 AM 42.8 °F - 42.8 °F 100% 29.91 in 1.8 mi Calm Calm - N/A   Overcast
7:35 AM 44.6 °F - 42.8 °F 93% 29.91 in 1.0 mi Calm Calm - N/A   Overcast
7:55 AM 44.6 °F - 42.8 °F 93% 29.92 in 1.0 mi Calm Calm - N/A   Overcast
8:15 AM 44.6 °F - 42.8 °F 93% 29.92 in 0.8 mi Calm Calm - N/A   Overcast
8:35 AM 44.6 °F - 42.8 °F 93% 29.92 in 0.8 mi Calm Calm - N/A   Overcast
8:55 AM 44.6 °F - 42.8 °F 93% 29.93 in 1.0 mi Calm Calm - N/A   Overcast
9:15 AM 44.6 °F - 42.8 °F 93% 29.93 in 1.2 mi Calm Calm - N/A   Overcast
9:35 AM 44.6 °F - 44.6 °F 100% 29.93 in 1.0 mi Calm Calm - N/A   Overcast
9:55 AM 44.6 °F - 44.6 °F 100% 29.93 in 1.2 mi Calm Calm - N/A   Overcast
10:15 AM 46.4 °F - 44.6 °F 93% 29.93 in 1.2 mi Calm Calm - N/A   Overcast
10:35 AM 46.4 °F 45.2 °F 44.6 °F 93% 29.93 in 1.0 mi WSW 3.5 mph - N/A   Overcast
10:55 AM 46.4 °F - 46.4 °F 100% 29.92 in 1.0 mi Calm Calm - N/A   Overcast
11:15 AM 48.2 °F - 46.4 °F 93% 29.90 in 1.5 mi Calm Calm - N/A   Overcast
11:35 AM 48.2 °F - 46.4 °F 93% 29.91 in 2.5 mi WSW 5.8 mph - N/A   Overcast
11:55 AM 50.0 °F - 46.4 °F 87% 29.90 in 4.0 mi West 6.9 mph - N/A   Overcast
12:15 PM 50.0 °F - 46.4 °F 87% 29.90 in 5.0 mi West 4.6 mph - N/A   Overcast
12:35 PM 50.0 °F - 46.4 °F 87% 29.89 in 4.0 mi Calm Calm - N/A   Overcast
12:55 PM 50.0 °F - 46.4 °F 87% 29.89 in 4.0 mi Calm Calm - N/A   Overcast
1:15 PM 50.0 °F - 46.4 °F 87% 29.89 in 4.0 mi Calm Calm - N/A   Overcast
1:35 PM 51.8 °F - 48.2 °F 88% 29.88 in 4.0 mi South 3.5 mph - N/A   Overcast
1:55 PM 51.8 °F - 48.2 °F 88% 29.88 in 4.0 mi Calm Calm - N/A   Overcast
2:15 PM 51.8 °F - 48.2 °F 88% 29.89 in 4.0 mi Calm Calm - N/A   Overcast
2:35 PM 51.8 °F - 48.2 °F 88% 29.90 in 5.0 mi Calm Calm - N/A   Overcast
2:55 PM 51.8 °F - 48.2 °F 88% 29.90 in 5.0 mi SW 4.6 mph - N/A   Overcast
3:15 PM 51.8 °F - 48.2 °F 88% 29.90 in 5.0 mi SW 4.6 mph - N/A   Overcast
3:35 PM 51.8 °F - 48.2 °F 88% 29.90 in 5.0 mi Calm Calm - N/A   Overcast
3:55 PM 51.8 °F - 48.2 °F 88% 29.90 in 5.0 mi Calm Calm - N/A   Overcast
4:15 PM 51.8 °F - 48.2 °F 88% 29.91 in 5.0 mi Calm Calm - N/A   Overcast
8:15 PM 50.0 °F - 50.0 °F 100% 29.97 in 2.5 mi Calm Calm - N/A   Overcast
8:35 PM 50.0 °F - 50.0 °F 100% 29.97 in 2.5 mi SW 3.5 mph - N/A   Overcast
8:55 PM 50.0 °F - 50.0 °F 100% 29.98 in 2.5 mi SW 3.5 mph - N/A   Overcast
9:15 PM 50.0 °F - 48.2 °F 94% 29.98 in 3.0 mi Calm Calm - N/A   Overcast
9:35 PM 50.0 °F - 48.2 °F 94% 29.98 in 3.0 mi Calm Calm - N/A   Overcast
9:55 PM 50.0 °F - 48.2 °F 94% 29.99 in 2.5 mi SW 4.6 mph - N/A   Overcast
10:15 PM 50.0 °F - 48.2 °F 94% 29.99 in 2.5 mi WSW 3.5 mph - N/A   Overcast
10:35 PM 50.0 °F - 48.2 °F 94% 30.00 in 2.5 mi Calm Calm - N/A   Overcast
10:55 PM 50.0 °F - 48.2 °F 94% 30.00 in 2.5 mi Calm Calm - N/A   Overcast
11:15 PM 50.0 °F - 46.4 °F 87% 30.01 in 2.0 mi Calm Calm - N/A   Overcast
11:35 PM 50.0 °F - 48.2 °F 94% 30.01 in 2.5 mi Calm Calm - N/A   Overcast
11:55 PM 50.0 °F - 46.4 °F 87% 30.01 in 3.0 mi Calm Calm - N/A   Overcast